x

Ilm2 - 5 Miles Se Of Wrightsville Beach, Nc (41038) Weather Station

3:08 - Wed 7th Dec 2016 All times are EST. -5 hours from GMT.

  • Wind
    7mph, 9mph gusts
  • Sea Temp 62°f
  • Aire Temp 57°f
  • Sea Pressure 1016.8mb
  • Ilm2 - 5 Miles Se Of Wrightsville Beach, Nc
  • Ilm2 - 5 Miles Se Of Wrightsville Beach, Nc

More Historic Weather Station data

Upgrade to MSW Pro to gain access to the past 30 days of data for over 8000 Wavebouys and Weather Stations around the globe.

Join Pro

Comparision Forecast

View Surf forecast
   
mié 12/07 3:08 7 9 mph 1016.8mb 62f 57f
2:08 4 9 mph 1016.3mb 62f 56f
12:08 11 18 mph 1016.7mb 61f 54f
11:08 13 20 mph 1017.4mb 61f 51f
10:08 11 18 mph 1017.4mb 61f 49f
9:08 16 22 mph 1017.4mb 61f 46f
8:08 16 25 mph 1016.6mb 61f 45f
7:08 18 27 mph 1015.8mb 61f 44f
6:08 18 27 mph 1014.4mb 61f 45f
5:08 16 27 mph 1013.5mb 61f 46f
4:08 20 27 mph 1012.5mb 61f 47f
3:08 16 25 mph 1012.2mb 61f 48f
1:08 18 29 mph 1010.2mb 62f 50f
12:08 20 31 mph 1010.2mb 62f 51f
mar 12/06 11:08 22 36 mph 1009.6mb 62f 52f
10:08 20 34 mph 1008.9mb 62f 53f
9:08 25 40 mph 1008.4mb 61f 54f
7:08 22 31 mph 1005.8mb 61f 60f
6:08 20 29 mph 1004.9mb 61f 62f
5:08 18 25 mph 1004.3mb 62f 62f
4:08 13 18 mph 1003.6mb 62f 61f
3:08 7 11 mph 1002.8mb 62f 62f
2:08 4 9 mph 1003.1mb 62f 61f
1:08 7 13 mph 1002.3mb 62f 61f
12:08 7 13 mph 1006.3mb 62f 61f
11:08 20 34 mph 1007.2mb 62f 62f
10:08 13 25 mph 1008.5mb 62f 59f
9:08 16 25 mph 1008.9mb 62f 60f
8:08 18 27 mph 1010.2mb 62f 59f
6:08 20 36 mph 1010.9mb 62f 54f
4:08 18 34 mph 1013.7mb 62f 50f
3:08 18 31 mph 1014.3mb 62f 50f
2:08 16 25 mph 1015.9mb 62f 50f
1:08 18 31 mph 1015.5mb 62f 51f
12:08 16 29 mph 1015.8mb 62f 51f
lun 12/05 11:08 16 38 mph 1015.6mb 62f 52f
10:08 16 29 mph 1015.8mb 62f 54f
8:08 13 25 mph 1016.6mb 62f 57f
7:08 13 22 mph 1016.3mb 62f 57f
6:08 13 22 mph 1015.1mb 62f 57f
5:08 9 16 mph 1015.1mb 62f 56f
4:08 11 20 mph 1014.5mb 62f 58f
3:08 9 16 mph 1014.5mb 62f 58f
2:08 13 20 mph 1013.7mb 63f 57f
1:08 11 22 mph 1014mb 63f 54f
12:08 9 16 mph 1014.3mb 63f 51f
11:08 11 16 mph 1015.6mb 63f 49f
10:08 11 18 mph 1016.2mb 63f 49f
9:08 16 29 mph 1015.2mb 63f 51f
8:08 16 29 mph 1014.1mb 63f 54f
7:08 16 25 mph 1013.7mb 63f 55f
6:08 13 27 mph 1013.3mb 63f 56f
5:08 20 34 mph 1011.2mb 63f 63f
4:08 18 25 mph 1012.2mb 63f 62f
3:08 11 16 mph 1013.3mb 63f 61f
2:08 9 13 mph 1014.6mb 63f 60f
1:08 16 22 mph 1015.1mb 63f 61f
12:08 16 20 mph 1016.3mb 63f 61f
dom 12/04 11:08 11 16 mph 1017.6mb 63f 58f
10:08 16 27 mph 1018.3mb 63f 56f
9:08 20 31 mph 1018.4mb 63f 55f
8:08 16 27 mph 1019.8mb 63f 54f
7:08 18 29 mph 1020.4mb 63f 53f
5:08 16 27 mph 1021.3mb 63f 50f
4:08 18 25 mph 1021.5mb 63f 49f
3:08 13 20 mph 1022.2mb 63f 50f
1:08 18 27 mph 1022.3mb 63f 49f
12:08 18 25 mph 1023mb 63f 49f
11:08 16 22 mph 1023.9mb 63f 50f
10:08 16 25 mph 1024.8mb 63f 50f
9:08 13 20 mph 1024.8mb 63f 50f
8:08 16 20 mph 1024.6mb 63f 50f
7:08 13 22 mph 1024.1mb 63f 51f
6:08 13 20 mph 1023.9mb 63f 51f
5:08 16 22 mph 1023.5mb 63f 51f
4:08 18 29 mph 1023.1mb 63f 51f
3:08 13 20 mph 1022.9mb 63f 51f
1:08 13 20 mph 1023.3mb 63f 50f
12:08 11 18 mph 1024.2mb 63f 50f
sáb 12/03 11:08 13 20 mph 1025.2mb 63f 49f